Location: Hohe Wand Kleine Kanzel
(47.8330°N, 16.0170°E)
Time: 15:31:38
(UTC+02:00)

Vanguard 3 - Pass Details

Date: 08 August 2021
Orbit: 509 x 3260 km, 33.4° (Epoch: 27 September)

Event Time Altitude Azimuth Distance (km) Brightness Sun altitude
Rises 22:22:34 0° 273° (W) 6,245 12.3 -17.1°
Reaches altitude 10° 22:27:09 10° 263° (W) 5,560 11.8 -17.6°
Maximum altitude 22:40:58 29° 212° (SSW) 4,699 10.8 -19.0°
Enters shadow 22:51:44 18° 172° (S) 5,476 10.8 -20.0°
